Regional Weather Roundup
Issued by NWS

Home | Current Version | Previous Version | Text Only | Print | Product List | Glossary On
Versions: 1 2 3 4 5 6 7 8 9 10 11 12 13 14 15 16 17 18 19 20 21 22 23 24 25 26 27 28 29 30 31 32 33 34 35 36 37 38 39 40 41 42 43 44 45 46 47 48 49 50
000
ASUS43 KTOP 101308
RWRKS

WEATHER ROUNDUP FOR KANSAS
NATIONAL WEATHER SERVICE GOODLAND KS
700 AM CST SAT DEC 10 2016

NOTE:  "FAIR" INDICATES FEW OR NO CLOUDS BELOW 12,000 FEET WITH NO
SIGNIFICANT WEATHER AND/OR OBSTRUCTIONS TO VISIBILITY.

KSZ001>006-013>018-027>032-041>047-101400-
NORTHWEST KANSAS

CITY           SKY/WX    TMP DP  RH WIND       PRES   REMARKS
GOODLAND       CLOUDY    16  14  92 S3        30.03F
HAYS           CLOUDY    18  14  84 SE10      30.21F WCI   6
HILL CITY      CLOUDY    18  13  80 CALM      30.21R
RUSSELL        CLOUDY    21  14  74 SE13      30.23F WCI   9
$$

KSZ061>065-074>080-084>089-101400-
SOUTHWEST KANSAS

CITY           SKY/WX    TMP DP  RH WIND       PRES   REMARKS
DODGE CITY     CLOUDY    18  14  84 S10       30.19F WCI   6
ELKHART          N/A     22  15  75 S9          N/A
GARDEN CITY    CLOUDY    17  14  88 S14       30.11F WCI   3
GREAT BEND     CLOUDY    18  14  84 SE9       30.25F
LIBERAL        CLOUDY    19  12  73 E7        30.13S
PRATT          CLOUDY    19  13  77 SE7       30.26F
$$

KSZ066>073-081>083-090>101-101400-
SOUTHEAST KANSAS

CITY           SKY/WX    TMP DP  RH WIND       PRES   REMARKS
CHANUTE        CLOUDY    31  20  63 SE6       30.42S
COFFEYVILLE    CLOUDY    33  21  61 S7        30.42F
HUTCHINSON     CLOUDY    29  13  51 SE7       30.32S
MEDICINE LODGE   N/A     20  13  74 E5        30.30R
NEWTON         CLOUDY    20  15  81 E7        30.36R
PARSONS        CLOUDY    33  20  58 S3        30.43S
WICHITA INTL   CLOUDY    25  17  72 SE8       30.34F
WICHITA JABRA  CLOUDY    21  16  81 SE7       30.34F
WICHITA MCCONL CLOUDY    25  16  69 SE8       30.34F
WINFIELD       CLOUDY    30  19  63 SE7       30.36F
$$

KSZ007>012-019>026-033>040-048>060-102>105-101400-
NORTHEAST KANSAS

CITY           SKY/WX    TMP DP  RH WIND       PRES   REMARKS
CONCORDIA      CLOUDY    23  18  81 SE9       30.32F
EMPORIA        CLOUDY    24  19  81 CALM      30.40R
LAWRENCE       CLOUDY    25  19  78 E6        30.43F
MANHATTAN      CLOUDY    27  16  63 SE3       30.38F
MARYSVILLE     CLOUDY    27  18  69 SE6       30.36F
OLATHE IND     CLOUDY    26  17  68 SE7       30.43F
OLATHE EXE     CLOUDY    25  15  66 SE6       30.43F
SALINA         PTCLDY    26  17  68 SE8       30.35F
TOPEKA BILLARD CLOUDY    26  20  77 E5        30.42F
TOPEKA FORBES  CLOUDY    26  19  74 SE7       30.40F
$$



USA.gov is the U.S. government's official web portal to all federal, state and local government web resources and services.